| time (UTC) | temp F | wind direction | speed knots | gust knots | rain 1hr in | rain 24hr in | rain mn in | humidity % | barometer mb |
| 20260510175836 | 82 | 326 | 1.7 | 2.6 | 0.00 | 0.00 | 0.00 | 85 | 1016.1 |
| 20260510175331 | 82 | 289 | 3.5 | 4.3 | 0.00 | 0.00 | 0.00 | 84 | 1016.1 |
| 20260510174828 | 82 | 261 | 2.6 | 2.6 | 0.00 | 0.00 | 0.00 | 84 | 1016.4 |
| 20260510174326 | 82 | 270 | 0.9 | 1.7 | 0.00 | 0.00 | 0.00 | 84 | 1016.3 |
| 20260510173821 | 83 | 296 | 1.7 | 1.7 | 0.00 | 0.00 | 0.00 | 84 | 1016.3 |
| 20260510173318 | 84 | 325 | 0.0 | 0.0 | 0.00 | 0.00 | 0.00 | 75 | 1016.3 |
| 20260510172814 | 85 | 71 | 0.9 | 0.9 | 0.00 | 0.00 | 0.00 | 74 | 1016.2 |
| 20260510172310 | 84 | 8 | 0.0 | 0.9 | 0.00 | 0.00 | 0.00 | 76 | 1016.5 |
| 20260510171806 | 83 | 75 | 0.0 | 0.0 | 0.00 | 0.00 | 0.00 | 78 | 1016.6 |
| 20260510171304 | 84 | 76 | 0.9 | 1.7 | 0.00 | 0.00 | 0.00 | 76 | 1016.4 |
| 20260510170801 | 83 | 40 | 0.0 | 0.0 | 0.00 | 0.00 | 0.00 | 80 | 1016.6 |
| 20260510170257 | 82 | 37 | 0.0 | 0.0 | 0.00 | 0.00 | 0.00 | 82 | 1016.5 |
| 20260510165752 | 82 | 68 | 0.9 | 0.9 | 0.00 | 0.00 | 0.00 | 81 | 1016.6 |
| 20260510165249 | 82 | 74 | 1.7 | 1.7 | 0.00 | 0.00 | 0.00 | 83 | 1016.6 |
| 20260510164746 | 83 | 38 | 0.0 | 0.0 | 0.00 | 0.00 | 0.00 | 81 | 1016.7 |
| 20260510164244 | 82 | 72 | 0.9 | 1.7 | 0.00 | 0.00 | 0.00 | 83 | 1016.7 |
| 20260510163744 | 82 | 32 | 0.9 | 0.9 | 0.00 | 0.00 | 0.00 | 83 | 1016.8 |
| 20260510163240 | 82 | 34 | 0.0 | 0.0 | 0.00 | 0.00 | 0.00 | 83 | 1016.9 |
| 20260510162739 | 81 | 66 | 0.0 | 0.9 | 0.00 | 0.00 | 0.00 | 81 | 1016.8 |
| 20260510162237 | 81 | 89 | 0.9 | 0.9 | 0.00 | 0.00 | 0.00 | 82 | 1017.1 |
| 20260510161733 | 81 | 40 | 0.9 | 0.9 | 0.00 | 0.00 | 0.00 | 84 | 1017.0 |
| 20260510161229 | 80 | 63 | 0.0 | 0.0 | 0.00 | 0.00 | 0.00 | 85 | 1017.0 |
| 20260510160726 | 79 | 34 | 0.0 | 0.9 | 0.00 | 0.00 | 0.00 | 88 | 1017.0 |
| 20260510160221 | 74 | 40 | 0.0 | 0.9 | 0.00 | 0.00 | 0.00 | 98 | 1016.7 |
| 20260510155717 | 74 | 326 | 0.9 | 0.9 | 0.00 | 0.00 | 0.00 | 99 | 1016.9 |
| 20260510155213 | 74 | 32 | 0.9 | 0.9 | 0.00 | 0.00 | 0.00 | 99 | 1016.8 |
| 20260510154709 | 74 | 44 | 0.0 | 0.0 | 0.00 | 0.00 | 0.00 | 99 | 1016.9 |
| 20260510154205 | 73 | 42 | 0.0 | 0.0 | 0.00 | 0.00 | 0.00 | 99 | 1016.8 |
| 20260510153700 | 72 | 53 | 0.0 | 0.9 | 0.00 | 0.00 | 0.00 | 99 | 1016.6 |
| 20260510153157 | 72 | 75 | 0.9 | 0.9 | 0.00 | 0.00 | 0.00 | 99 | 1016.6 |
| 20260510152653 | 72 | 28 | 0.0 | 0.0 | 0.00 | 0.00 | 0.00 | 99 | 1016.8 |
| 20260510152149 | 72 | 70 | 0.9 | 0.9 | 0.00 | 0.00 | 0.00 | 99 | 1016.7 |
| 20260510151646 | 71 | 25 | 0.0 | 0.0 | 0.00 | 0.00 | 0.00 | 99 | 1016.7 |
| 20260510151145 | 71 | 29 | 0.9 | 0.9 | 0.00 | 0.00 | 0.00 | 99 | 1016.9 |
| 20260510150640 | 71 | 73 | 0.9 | 0.9 | 0.00 | 0.00 | 0.00 | 99 | 1016.8 |
| 20260510150135 | 71 | 26 | 0.0 | 0.0 | 0.00 | 0.00 | 0.00 | 99 | 1016.6 |
| 20260510145632 | 71 | 83 | 0.0 | 0.9 | 0.00 | 0.00 | 0.00 | 99 | 1017.0 |
| 20260510145129 | 70 | 51 | 0.0 | 0.9 | 0.00 | 0.00 | 0.00 | 99 | 1017.2 |
| 20260510144625 | 70 | 85 | 0.9 | 0.9 | 0.00 | 0.00 | 0.00 | 99 | 1017.0 |
| 20260510144121 | 70 | 47 | 0.0 | 0.0 | 0.00 | 0.00 | 0.00 | 99 | 1017.2 |
| 20260510143617 | 70 | 52 | 0.0 | 0.0 | 0.00 | 0.00 | 0.00 | 99 | 1016.9 |
| 20260510143113 | 69 | 21 | 0.0 | 0.0 | 0.00 | 0.00 | 0.00 | 99 | 1017.1 |
| 20260510142610 | 68 | 26 | 0.0 | 0.0 | 0.00 | 0.00 | 0.00 | 99 | 1017.0 |
| 20260510142106 | 68 | 27 | 0.0 | 0.0 | 0.00 | 0.00 | 0.00 | 99 | 1017.2 |
| 20260510141603 | 68 | 29 | 0.0 | 0.0 | 0.00 | 0.00 | 0.00 | 99 | 1017.1 |
| 20260510141101 | 68 | 37 | 0.0 | 0.0 | 0.00 | 0.00 | 0.00 | 99 | 1017.1 |
| 20260510140557 | 68 | 30 | 0.0 | 0.0 | 0.00 | 0.00 | 0.00 | 99 | 1017.1 |
| 20260510140057 | 68 | 39 | 0.0 | 0.0 | 0.00 | 0.00 | 0.00 | 99 | 1017.0 |
| 20260510135552 | 68 | 24 | 0.0 | 0.0 | 0.00 | 0.00 | 0.00 | 99 | 1017.0 |
| 20260510135049 | 68 | 21 | 0.0 | 0.0 | 0.00 | 0.00 | 0.00 | 99 | 1017.1 |
| 20260510134546 | 68 | 36 | 0.0 | 0.0 | 0.00 | 0.00 | 0.00 | 99 | 1016.7 |
| 20260510134043 | 68 | 34 | 0.0 | 0.0 | 0.00 | 0.00 | 0.00 | 99 | 1016.6 |
| 20260510133539 | 67 | 20 | 0.0 | 0.0 | 0.00 | 0.00 | 0.00 | 99 | 1016.6 |
| 20260510133035 | 68 | 34 | 0.0 | 0.0 | 0.00 | 0.00 | 0.00 | 99 | 1016.5 |
| 20260510132532 | 67 | 24 | 0.0 | 0.0 | 0.00 | 0.00 | 0.00 | 99 | 1016.7 |
| 20260510132029 | 67 | 27 | 0.0 | 0.0 | 0.00 | 0.00 | 0.00 | 99 | 1016.4 |
| 20260510131527 | 67 | 23 | 0.0 | 0.0 | 0.00 | 0.00 | 0.00 | 99 | 1016.7 |
| 20260510131024 | 67 | 44 | 0.0 | 0.0 | 0.00 | 0.00 | 0.00 | 99 | 1016.5 |
| 20260510130520 | 67 | 47 | 0.9 | 0.9 | 0.00 | 0.00 | 0.00 | 99 | 1016.6 |
| 20260510130017 | 67 | 29 | 0.0 | 0.0 | 0.00 | 0.00 | 0.00 | 99 | 1016.4 |
| 20260510125514 | 66 | 53 | 0.0 | 0.9 | 0.00 | 0.00 | 0.00 | 99 | 1016.3 |
| 20260510125010 | 66 | 23 | 0.0 | 0.0 | 0.00 | 0.00 | 0.00 | 99 | 1016.0 |
| 20260510124506 | 66 | 30 | 0.0 | 0.0 | 0.00 | 0.00 | 0.00 | 99 | 1016.3 |
| 20260510124003 | 66 | 24 | 0.0 | 0.0 | 0.00 | 0.00 | 0.00 | 99 | 1016.1 |
| 20260510123459 | 66 | 37 | 0.0 | 0.0 | 0.00 | 0.00 | 0.00 | 99 | 1016.1 |
| 20260510122955 | 66 | 23 | 0.0 | 0.0 | 0.00 | 0.00 | 0.00 | 99 | 1015.9 |
| 20260510122450 | 66 | 44 | 0.0 | 0.0 | 0.00 | 0.00 | 0.00 | 99 | 1015.8 |
| 20260510121947 | 66 | 34 | 0.0 | 0.0 | 0.00 | 0.00 | 0.00 | 99 | 1015.8 |
| 20260510121444 | 66 | 40 | 0.0 | 0.0 | 0.00 | 0.00 | 0.00 | 99 | 1015.9 |
| 20260510120942 | 66 | 32 | 0.0 | 0.0 | 0.00 | 0.00 | 0.00 | 99 | 1015.7 |
| 20260510120439 | 66 | 52 | 0.0 | 0.0 | 0.00 | 0.00 | 0.00 | 99 | 1015.5 |
| 20260510115934 | 66 | 37 | 0.0 | 0.0 | 0.00 | 0.00 | 0.00 | 99 | 1015.5 |
| 20260510115432 | 66 | 33 | 0.0 | 0.0 | 0.00 | 0.00 | 0.00 | 99 | 1015.2 |
| 20260510114927 | 66 | 29 | 0.0 | 0.0 | 0.00 | 0.00 | 0.00 | 99 | 1015.2 |
| 20260510114425 | 65 | 25 | 0.0 | 0.0 | 0.00 | 0.00 | 0.00 | 99 | 1015.2 |
| 20260510113920 | 65 | 21 | 0.0 | 0.0 | 0.00 | 0.00 | 0.00 | 99 | 1014.9 |
| 20260510113416 | 65 | 21 | 0.0 | 0.0 | 0.00 | 0.00 | 0.00 | 99 | 1015.0 |
| 20260510112914 | 65 | 23 | 0.0 | 0.0 | 0.00 | 0.00 | 0.00 | 99 | 1015.0 |
| 20260510112411 | 65 | 22 | 0.0 | 0.0 | 0.00 | 0.00 | 0.00 | 99 | 1014.7 |
| 20260510111907 | 65 | 22 | 0.0 | 0.0 | 0.00 | 0.00 | 0.00 | 99 | 1014.6 |
| 20260510111403 | 65 | 18 | 0.0 | 0.0 | 0.00 | 0.00 | 0.00 | 99 | 1014.3 |
| 20260510110858 | 65 | 19 | 0.0 | 0.0 | 0.00 | 0.00 | 0.00 | 99 | 1014.0 |
| 20260510110355 | 65 | 19 | 0.0 | 0.0 | 0.00 | 0.00 | 0.00 | 99 | 1014.0 |
| 20260510105851 | 65 | 36 | 0.0 | 0.0 | 0.00 | 0.00 | 0.00 | 99 | 1014.0 |
| 20260510105351 | 65 | 28 | 0.0 | 0.0 | 0.00 | 0.00 | 0.00 | 99 | 1014.0 |
| 20260510104847 | 65 | 21 | 0.0 | 0.0 | 0.00 | 0.00 | 0.00 | 99 | 1013.9 |
| 20260510104344 | 65 | 33 | 0.0 | 0.0 | 0.00 | 0.00 | 0.00 | 99 | 1013.7 |
| 20260510103840 | 65 | 34 | 0.0 | 0.0 | 0.00 | 0.00 | 0.00 | 99 | 1013.9 |
| 20260510103338 | 65 | 44 | 0.0 | 0.0 | 0.00 | 0.00 | 0.00 | 99 | 1013.8 |
| 20260510102833 | 66 | 26 | 0.0 | 0.0 | 0.00 | 0.00 | 0.00 | 99 | 1013.8 |
| 20260510102329 | 66 | 31 | 0.0 | 0.0 | 0.00 | 0.00 | 0.00 | 99 | 1013.7 |
| 20260510101826 | 66 | 20 | 0.0 | 0.0 | 0.00 | 0.00 | 0.00 | 99 | 1013.4 |
| 20260510101324 | 66 | 23 | 0.0 | 0.0 | 0.00 | 0.00 | 0.00 | 99 | 1013.5 |
| 20260510100820 | 66 | 20 | 0.0 | 0.0 | 0.00 | 0.00 | 0.00 | 99 | 1013.4 |
| 20260510100318 | 66 | 30 | 0.0 | 0.0 | 0.00 | 0.00 | 0.00 | 99 | 1013.4 |
| 20260510095814 | 66 | 25 | 0.0 | 0.0 | 0.00 | 0.00 | 0.00 | 99 | 1013.4 |
| 20260510095309 | 66 | 23 | 0.0 | 0.0 | 0.00 | 0.00 | 0.00 | 99 | 1013.3 |
| 20260510094809 | 66 | 21 | 0.0 | 0.0 | 0.00 | 0.00 | 0.00 | 99 | 1013.3 |
| 20260510094304 | 66 | 30 | 0.0 | 0.0 | 0.00 | 0.00 | 0.00 | 99 | 1013.1 |
| 20260510093800 | 66 | 27 | 0.0 | 0.0 | 0.00 | 0.00 | 0.00 | 99 | 1013.2 |
| 20260510093257 | 65 | 21 | 0.0 | 0.0 | 0.00 | 0.00 | 0.00 | 99 | 1013.0 |
| 20260510092753 | 65 | 21 | 0.0 | 0.0 | 0.00 | 0.00 | 0.00 | 99 | 1013.1 |
| 20260510092249 | 65 | 36 | 0.0 | 0.0 | 0.00 | 0.00 | 0.00 | 99 | 1013.3 |
| 20260510091745 | 66 | 23 | 0.0 | 0.0 | 0.00 | 0.00 | 0.00 | 99 | 1013.2 |
| 20260510091242 | 66 | 28 | 0.0 | 0.0 | 0.00 | 0.00 | 0.00 | 99 | 1013.3 |
| 20260510090738 | 66 | 31 | 0.0 | 0.0 | 0.00 | 0.00 | 0.00 | 99 | 1013.4 |
| 20260510090236 | 66 | 19 | 0.0 | 0.0 | 0.00 | 0.00 | 0.00 | 99 | 1013.4 |
| 20260510085731 | 66 | 23 | 0.0 | 0.0 | 0.00 | 0.00 | 0.00 | 99 | 1013.3 |
| 20260510085226 | 66 | 26 | 0.0 | 0.0 | 0.00 | 0.00 | 0.00 | 99 | 1013.5 |
| 20260510084722 | 66 | 27 | 0.0 | 0.0 | 0.00 | 0.00 | 0.00 | 99 | 1013.5 |
| 20260510084219 | 66 | 22 | 0.0 | 0.0 | 0.00 | 0.00 | 0.00 | 99 | 1013.3 |
| 20260510083715 | 66 | 20 | 0.0 | 0.0 | 0.00 | 0.00 | 0.00 | 99 | 1013.5 |
| 20260510083213 | 66 | 20 | 0.0 | 0.0 | 0.00 | 0.00 | 0.00 | 99 | 1013.4 |
| 20260510082708 | 66 | 21 | 0.0 | 0.0 | 0.00 | 0.00 | 0.00 | 99 | 1013.2 |
| 20260510082205 | 66 | 21 | 0.0 | 0.0 | 0.00 | 0.00 | 0.00 | 99 | 1013.3 |
| 20260510081659 | 66 | 21 | 0.0 | 0.0 | 0.00 | 0.00 | 0.00 | 99 | 1013.0 |
| 20260510081155 | 66 | 24 | 0.0 | 0.0 | 0.00 | 0.00 | 0.00 | 99 | 1013.0 |
| 20260510080655 | 66 | 23 | 0.0 | 0.0 | 0.00 | 0.00 | 0.00 | 99 | 1013.0 |
| 20260510080152 | 66 | 23 | 0.0 | 0.0 | 0.00 | 0.00 | 0.00 | 99 | 1012.9 |
| 20260510075648 | 66 | 26 | 0.0 | 0.0 | 0.00 | 0.00 | 0.00 | 99 | 1012.8 |
| 20260510075146 | 66 | 21 | 0.0 | 0.0 | 0.00 | 0.00 | 0.00 | 99 | 1013.0 |
| 20260510074643 | 66 | 21 | 0.0 | 0.0 | 0.00 | 0.00 | 0.00 | 99 | 1012.8 |
| 20260510074138 | 66 | 23 | 0.0 | 0.0 | 0.00 | 0.00 | 0.00 | 99 | 1013.0 |
| 20260510073635 | 66 | 25 | 0.0 | 0.0 | 0.00 | 0.00 | 0.00 | 99 | 1012.9 |
| 20260510073132 | 66 | 19 | 0.0 | 0.0 | 0.00 | 0.00 | 0.00 | 99 | 1012.9 |
| 20260510072628 | 66 | 20 | 0.0 | 0.0 | 0.00 | 0.00 | 0.00 | 99 | 1012.7 |
| 20260510072124 | 66 | 20 | 0.0 | 0.0 | 0.00 | 0.00 | 0.00 | 99 | 1012.8 |
| 20260510071620 | 66 | 23 | 0.0 | 0.0 | 0.00 | 0.00 | 0.00 | 99 | 1012.7 |
| 20260510071118 | 66 | 23 | 0.0 | 0.0 | 0.00 | 0.00 | 0.00 | 99 | 1012.7 |
| 20260510070615 | 66 | 23 | 0.0 | 0.0 | 0.00 | 0.00 | 0.00 | 99 | 1012.9 |
| 20260510070113 | 66 | 27 | 0.0 | 0.0 | 0.00 | 0.00 | 0.00 | 99 | 1012.8 |
| 20260510065608 | 66 | 27 | 0.0 | 0.0 | 0.00 | 0.00 | 0.00 | 99 | 1013.0 |
| 20260510065105 | 67 | 30 | 0.0 | 0.9 | 0.00 | 0.00 | 0.00 | 99 | 1013.0 |
| 20260510064601 | 67 | 24 | 0.0 | 0.0 | 0.00 | 0.00 | 0.00 | 99 | 1013.1 |
| 20260510064058 | 67 | 37 | 0.0 | 0.0 | 0.00 | 0.00 | 0.00 | 99 | 1013.1 |
| 20260510063555 | 67 | 24 | 0.0 | 0.0 | 0.00 | 0.00 | 0.00 | 99 | 1013.3 |
| 20260510063052 | 67 | 22 | 0.0 | 0.0 | 0.00 | 0.00 | 0.00 | 99 | 1013.4 |
| 20260510062548 | 67 | 20 | 0.0 | 0.0 | 0.00 | 0.00 | 0.00 | 99 | 1013.1 |
| 20260510062043 | 67 | 21 | 0.0 | 0.0 | 0.00 | 0.00 | 0.00 | 99 | 1013.2 |
| 20260510061540 | 67 | 19 | 0.0 | 0.0 | 0.00 | 0.00 | 0.00 | 99 | 1013.2 |
| 20260510061037 | 67 | 20 | 0.0 | 0.0 | 0.00 | 0.00 | 0.00 | 99 | 1013.2 |
| 20260510060533 | 67 | 20 | 0.0 | 0.0 | 0.00 | 0.00 | 0.00 | 99 | 1013.2 |
| 20260510060029 | 67 | 21 | 0.0 | 0.0 | 0.00 | 0.00 | 0.00 | 99 | 1013.2 |
| 20260510055525 | 67 | 19 | 0.0 | 0.0 | 0.00 | 0.00 | 0.00 | 99 | 1013.2 |
| 20260510055024 | 67 | 19 | 0.0 | 0.0 | 0.00 | 0.00 | 0.00 | 99 | 1013.3 |
| 20260510054519 | 67 | 20 | 0.0 | 0.0 | 0.00 | 0.00 | 0.00 | 99 | 1013.2 |
| 20260510054014 | 67 | 20 | 0.0 | 0.0 | 0.00 | 0.00 | 0.00 | 99 | 1013.2 |
| 20260510053509 | 67 | 20 | 0.0 | 0.0 | 0.00 | 0.00 | 0.00 | 99 | 1013.1 |
| 20260510053006 | 66 | 20 | 0.0 | 0.0 | 0.00 | 0.00 | 0.00 | 99 | 1013.2 |
| 20260510052502 | 67 | 20 | 0.0 | 0.0 | 0.00 | 0.00 | 0.00 | 99 | 1013.1 |
| 20260510051958 | 67 | 21 | 0.0 | 0.0 | 0.00 | 0.00 | 0.00 | 99 | 1012.9 |
| 20260510051454 | 67 | 21 | 0.0 | 0.0 | 0.00 | 0.00 | 0.00 | 99 | 1013.2 |
| 20260510050951 | 67 | 24 | 0.0 | 0.0 | 0.00 | 0.00 | 0.00 | 99 | 1013.2 |
| 20260510050448 | 67 | 22 | 0.0 | 0.0 | 0.00 | 0.00 | 0.00 | 99 | 1013.2 |
| 20260510045945 | 67 | 16 | 0.0 | 0.0 | 0.00 | 3.32 | 3.32 | 99 | 1013.2 |
| 20260510045442 | 67 | 16 | 0.0 | 0.0 | 0.00 | 3.32 | 3.32 | 99 | 1013.3 |
| 20260510044939 | 67 | 19 | 0.0 | 0.0 | 0.00 | 3.32 | 3.32 | 99 | 1013.0 |
| 20260510044435 | 67 | 20 | 0.0 | 0.0 | 0.00 | 3.32 | 3.32 | 99 | 1013.1 |
| 20260510043932 | 67 | 19 | 0.0 | 0.0 | 0.00 | 3.32 | 3.32 | 99 | 1013.0 |
| 20260510043422 | 67 | 34 | 0.0 | 0.0 | 0.00 | 3.32 | 3.32 | 99 | 1013.3 |
| 20260510042921 | 67 | 26 | 0.0 | 0.0 | 0.00 | 3.32 | 3.32 | 99 | 1013.2 |
| 20260510042416 | 67 | 6 | 0.0 | 0.0 | 0.00 | 3.32 | 3.32 | 99 | 1013.1 |
| 20260510041912 | 68 | 11 | 0.0 | 0.0 | 0.00 | 3.32 | 3.32 | 99 | 1013.1 |
| 20260510041410 | 68 | 12 | 0.0 | 0.0 | 0.00 | 3.32 | 3.32 | 99 | 1012.6 |
| 20260510040908 | 68 | 13 | 0.0 | 0.0 | 0.00 | 3.32 | 3.32 | 99 | 1012.6 |
| 20260510040404 | 68 | 33 | 0.0 | 0.0 | 0.00 | 3.32 | 3.32 | 99 | 1012.7 |
| 20260510035859 | 68 | 48 | 0.0 | 0.0 | 0.00 | 3.32 | 3.32 | 99 | 1012.6 |
| 20260510035355 | 68 | 32 | 0.0 | 0.0 | 0.00 | 3.32 | 3.32 | 99 | 1013.0 |
| 20260510034851 | 68 | 27 | 0.0 | 0.0 | 0.00 | 3.32 | 3.32 | 99 | 1013.0 |
| 20260510034349 | 68 | 19 | 0.0 | 0.0 | 0.00 | 3.32 | 3.32 | 99 | 1013.4 |
| 20260510033845 | 68 | 19 | 0.0 | 0.0 | 0.00 | 3.32 | 3.32 | 99 | 1013.6 |
| 20260510033342 | 68 | 20 | 0.0 | 0.0 | 0.00 | 3.32 | 3.32 | 99 | 1014.1 |
| 20260510032838 | 68 | 26 | 0.0 | 0.0 | 0.00 | 3.32 | 3.32 | 99 | 1013.9 |
| 20260510032336 | 68 | 28 | 0.0 | 0.0 | 0.00 | 3.32 | 3.32 | 99 | 1014.0 |
| 20260510031831 | 68 | 13 | 0.0 | 0.0 | 0.00 | 3.32 | 3.32 | 99 | 1013.9 |
| 20260510031327 | 68 | 6 | 0.0 | 0.0 | 0.00 | 3.32 | 3.32 | 99 | 1013.8 |
| 20260510030827 | 68 | 6 | 0.0 | 0.0 | 0.00 | 3.32 | 3.32 | 99 | 1013.6 |
| 20260510030323 | 68 | 6 | 0.0 | 0.0 | 0.00 | 3.32 | 3.32 | 99 | 1013.6 |
| 20260510025820 | 68 | 7 | 0.0 | 0.0 | 0.00 | 3.32 | 3.32 | 99 | 1013.6 |
| 20260510025318 | 68 | 20 | 0.0 | 0.0 | 0.00 | 3.32 | 3.32 | 99 | 1013.1 |
| 20260510024815 | 68 | 11 | 0.0 | 0.0 | 0.00 | 3.32 | 3.32 | 99 | 1013.3 |
| 20260510024312 | 68 | 28 | 0.0 | 0.0 | 0.00 | 3.32 | 3.32 | 99 | 1013.1 |
| 20260510023808 | 68 | 25 | 0.0 | 0.0 | 0.00 | 3.32 | 3.32 | 99 | 1013.0 |
| 20260510023304 | 68 | 22 | 0.0 | 0.0 | 0.00 | 3.32 | 3.32 | 99 | 1013.0 |
| 20260510022801 | 68 | 26 | 0.0 | 0.0 | 0.00 | 3.32 | 3.32 | 99 | 1013.4 |
| 20260510022301 | 68 | 24 | 0.0 | 0.0 | 0.00 | 3.32 | 3.32 | 99 | 1013.2 |
| 20260510021800 | 68 | 17 | 0.0 | 0.0 | 0.00 | 3.32 | 3.32 | 99 | 1013.2 |
| 20260510021258 | 68 | 22 | 0.0 | 0.0 | 0.00 | 3.32 | 3.32 | 99 | 1013.3 |
| 20260510020754 | 68 | 25 | 0.0 | 0.0 | 0.00 | 3.32 | 3.32 | 99 | 1013.5 |
| 20260510020254 | 68 | 15 | 0.0 | 0.0 | 0.00 | 3.32 | 3.32 | 99 | 1013.2 |
| 20260510015750 | 68 | 13 | 0.0 | 0.0 | 0.00 | 3.32 | 3.32 | 99 | 1013.3 |
| 20260510015247 | 68 | 309 | 1.7 | 2.6 | 0.00 | 3.32 | 3.32 | 99 | 1012.6 |
| 20260510014741 | 68 | 331 | 1.7 | 1.7 | 0.00 | 3.32 | 3.32 | 99 | 1012.6 |
| 20260510014239 | 68 | 337 | 0.0 | 0.0 | 0.00 | 3.32 | 3.32 | 99 | 1012.4 |
| 20260510013735 | 68 | 50 | 0.0 | 0.0 | 0.00 | 3.32 | 3.32 | 99 | 1012.1 |
| 20260510013230 | 68 | 37 | 0.9 | 0.9 | 0.00 | 3.32 | 3.32 | 99 | 1012.2 |
| 20260510012725 | 68 | 30 | 0.0 | 0.0 | 0.00 | 3.32 | 3.32 | 99 | 1012.1 |
| 20260510012221 | 68 | 79 | 0.0 | 0.9 | 0.07 | 3.32 | 3.32 | 99 | 1012.2 |
| 20260510011720 | 68 | 38 | 0.0 | 0.0 | 0.07 | 3.32 | 3.32 | 99 | 1012.2 |
| 20260510011216 | 68 | 57 | 0.0 | 0.9 | 0.00 | 3.31 | 3.31 | 99 | 1012.2 |
| 20260510010713 | 68 | 72 | 0.9 | 0.9 | 0.12 | 3.31 | 3.31 | 99 | 1012.4 |
| 20260510010210 | 68 | 87 | 0.0 | 0.0 | 0.19 | 3.31 | 3.31 | 99 | 1012.2 |
| 20260510005706 | 68 | 20 | 0.0 | 0.0 | 0.07 | 3.29 | 3.29 | 99 | 1012.6 |
| 20260510005203 | 68 | 14 | 0.0 | 0.0 | 0.00 | 3.28 | 3.28 | 99 | 1012.7 |
| 20260510004702 | 68 | 2 | 0.0 | 0.0 | 0.05 | 3.28 | 3.28 | 99 | 1012.9 |
| 20260510004159 | 68 | 341 | 0.0 | 0.0 | 0.05 | 3.28 | 3.28 | 99 | 1012.6 |
| 20260510003656 | 68 | 303 | 0.9 | 0.9 | 0.00 | 3.27 | 3.27 | 99 | 1012.5 |
| 20260510003151 | 68 | 10 | 0.0 | 0.0 | 0.00 | 3.27 | 3.27 | 99 | 1012.2 |
| 20260510002646 | 68 | 58 | 0.0 | 0.0 | 0.00 | 3.27 | 3.27 | 99 | 1012.2 |
| 20260510002143 | 68 | 43 | 0.0 | 0.0 | 0.00 | 3.27 | 3.27 | 99 | 1012.1 |
| 20260510001640 | 68 | 24 | 0.0 | 0.0 | 0.00 | 3.27 | 3.27 | 99 | 1011.8 |
| 20260510001139 | 68 | 42 | 0.0 | 0.9 | 0.00 | 3.27 | 3.27 | 99 | 1011.9 |
| 20260510000639 | 68 | 39 | 0.0 | 0.0 | 0.00 | 3.27 | 3.27 | 99 | 1011.9 |
| 20260510000137 | 68 | 22 | 0.0 | 0.0 | 0.00 | 3.27 | 3.27 | 99 | 1012.5 |
| 20260509235632 | 68 | 26 | 0.0 | 0.0 | 0.00 | 3.27 | 3.27 | 99 | 1012.2 |
| 20260509235129 | 68 | 7 | 0.0 | 0.0 | 0.00 | 3.27 | 3.27 | 99 | 1012.7 |
| 20260509234625 | 68 | 15 | 0.0 | 0.0 | 0.00 | 3.27 | 3.27 | 99 | 1012.2 |
| 20260509234123 | 68 | 36 | 0.0 | 0.0 | 0.00 | 3.27 | 3.27 | 99 | 1012.2 |
| 20260509233621 | 68 | 32 | 0.0 | 0.0 | 0.00 | 3.27 | 3.27 | 99 | 1012.4 |
| 20260509233118 | 68 | 25 | 0.0 | 0.0 | 0.00 | 3.27 | 3.27 | 99 | 1012.6 |
| 20260509232614 | 68 | 24 | 0.0 | 0.0 | 0.00 | 3.27 | 3.27 | 99 | 1012.8 |
| 20260509232111 | 68 | 24 | 0.0 | 0.0 | 0.00 | 3.27 | 3.27 | 99 | 1012.7 |
| 20260509231608 | 68 | 24 | 0.0 | 0.0 | 0.07 | 3.27 | 3.27 | 99 | 1012.5 |
| 20260509231105 | 68 | 25 | 0.0 | 0.0 | 0.07 | 3.27 | 3.27 | 99 | 1012.7 |
| 20260509230602 | 68 | 23 | 0.0 | 0.0 | 0.00 | 3.26 | 3.26 | 99 | 1012.9 |
| 20260509230059 | 68 | 24 | 0.0 | 0.0 | 0.00 | 3.26 | 3.26 | 99 | 1012.6 |
| 20260509225554 | 68 | 4 | 0.0 | 0.0 | 0.00 | 3.26 | 3.26 | 99 | 1012.9 |
| 20260509225050 | 68 | 359 | 0.0 | 0.0 | 0.05 | 3.26 | 3.26 | 99 | 1012.3 |
| 20260509224546 | 68 | 17 | 0.0 | 0.0 | 0.05 | 3.26 | 3.26 | 99 | 1011.7 |
| 20260509224043 | 68 | 3 | 0.0 | 0.0 | 0.00 | 3.25 | 3.25 | 99 | 1011.6 |
| 20260509223540 | 68 | 0 | 0.0 | 0.0 | 0.00 | 3.25 | 3.25 | 99 | 1011.8 |
| 20260509223038 | 68 | 24 | 0.0 | 0.0 | 0.00 | 3.25 | 3.25 | 99 | 1011.4 |
| 20260509222533 | 67 | 24 | 0.0 | 0.0 | 0.07 | 3.25 | 3.25 | 99 | 1011.2 |
| 20260509222035 | 67 | 26 | 0.0 | 0.0 | 0.07 | 3.25 | 3.25 | 99 | 1011.3 |
| 20260509221525 | 67 | 9 | 0.0 | 0.0 | 0.05 | 3.24 | 3.24 | 99 | 1011.8 |
| 20260509221021 | 67 | 298 | 0.0 | 0.9 | 0.12 | 3.24 | 3.24 | 99 | 1012.2 |
| 20260509220518 | 67 | 274 | 0.0 | 0.0 | 0.07 | 3.23 | 3.23 | 99 | 1012.0 |
| 20260509220014 | 67 | 18 | 0.0 | 0.0 | 0.00 | 3.22 | 3.22 | 99 | 1011.9 |
| 20260509215509 | 68 | 300 | 0.0 | 0.0 | 0.05 | 3.22 | 3.22 | 99 | 1012.1 |
| 20260509215007 | 68 | 269 | 0.9 | 1.7 | 0.05 | 3.22 | 3.22 | 99 | 1012.1 |
| 20260509214504 | 68 | 339 | 0.0 | 0.0 | 0.00 | 3.21 | 3.21 | 99 | 1012.0 |
| 20260509214001 | 68 | 8 | 0.0 | 0.0 | 0.00 | 3.21 | 3.21 | 99 | 1011.7 |
| 20260509213457 | 68 | 339 | 0.0 | 0.0 | 0.00 | 3.21 | 3.21 | 99 | 1012.0 |
| 20260509212954 | 68 | 356 | 0.0 | 0.0 | 0.00 | 3.21 | 3.21 | 99 | 1011.9 |
| 20260509212451 | 68 | 336 | 0.0 | 0.9 | 0.00 | 3.21 | 3.21 | 99 | 1011.9 |
| 20260509211948 | 68 | 334 | 0.0 | 0.0 | 0.00 | 3.21 | 3.21 | 99 | 1011.9 |
| 20260509211443 | 68 | 358 | 0.0 | 0.0 | 0.00 | 3.21 | 3.21 | 99 | 1011.3 |
| 20260509210940 | 68 | 341 | 0.9 | 0.9 | 0.00 | 3.21 | 3.21 | 99 | 1011.0 |
| 20260509210437 | 67 | 5 | 0.0 | 0.0 | 0.00 | 3.21 | 3.21 | 99 | 1010.5 |
| 20260509205932 | 68 | 66 | 0.9 | 1.7 | 0.00 | 3.21 | 3.21 | 99 | 1010.5 |
| 20260509205427 | 68 | 41 | 0.0 | 0.0 | 0.00 | 3.21 | 3.21 | 99 | 1010.5 |
| 20260509204923 | 68 | 52 | 0.0 | 0.0 | 0.00 | 3.21 | 3.21 | 99 | 1011.0 |
| 20260509204420 | 67 | 8 | 0.0 | 0.0 | 0.00 | 3.21 | 3.21 | 99 | 1011.2 |
| 20260509203917 | 67 | 1 | 0.0 | 0.0 | 0.00 | 3.21 | 3.21 | 99 | 1011.2 |
| 20260509203412 | 67 | 50 | 0.0 | 0.9 | 0.00 | 3.21 | 3.21 | 99 | 1010.8 |
| 20260509202910 | 67 | 40 | 0.0 | 0.0 | 0.07 | 3.21 | 3.21 | 99 | 1011.4 |
| 20260509202406 | 67 | 27 | 0.0 | 0.0 | 0.07 | 3.21 | 3.21 | 99 | 1011.6 |
| 20260509201901 | 67 | 42 | 0.0 | 0.0 | 0.12 | 3.20 | 3.20 | 99 | 1011.7 |
| 20260509201356 | 68 | 0 | 0.0 | 0.0 | 0.19 | 3.20 | 3.20 | 99 | 1012.3 |
| 20260509200854 | 68 | 50 | 0.0 | 0.0 | 0.26 | 3.19 | 3.19 | 99 | 1012.6 |
| 20260509200348 | 67 | 5 | 0.0 | 0.0 | 0.35 | 3.17 | 3.17 | 99 | 1012.8 |
| 20260509195846 | 67 | 295 | 1.7 | 1.7 | 0.31 | 3.14 | 3.14 | 99 | 1013.2 |
| 20260509195345 | 67 | 318 | 0.0 | 0.0 | 0.17 | 3.11 | 3.11 | 99 | 1013.1 |
| 20260509194845 | 67 | 342 | 0.0 | 0.0 | 0.19 | 3.09 | 3.09 | 99 | 1012.8 |
| 20260509194342 | 67 | 353 | 0.0 | 0.0 | 0.26 | 3.08 | 3.08 | 99 | 1012.6 |
| 20260509193838 | 67 | 23 | 0.0 | 0.0 | 0.24 | 3.06 | 3.06 | 99 | 1012.5 |
| 20260509193338 | 67 | 58 | 0.0 | 0.9 | 0.24 | 3.04 | 3.04 | 99 | 1012.4 |
| 20260509192834 | 67 | 25 | 0.0 | 0.0 | 0.28 | 3.02 | 3.02 | 99 | 1012.4 |
| 20260509192330 | 67 | 21 | 0.0 | 0.0 | 0.35 | 3.00 | 3.00 | 99 | 1012.5 |
| 20260509191826 | 67 | 41 | 0.0 | 0.9 | 0.31 | 2.97 | 2.97 | 99 | 1012.9 |
| 20260509191322 | 67 | 262 | 1.7 | 1.7 | 0.31 | 2.94 | 2.94 | 99 | 1013.0 |
| 20260509190818 | 66 | 34 | 0.0 | 0.0 | 0.24 | 2.92 | 2.92 | 99 | 1012.8 |
| 20260509190315 | 66 | 347 | 0.0 | 0.0 | 0.12 | 2.89 | 2.89 | 99 | 1013.1 |
| 20260509185812 | 66 | 17 | 0.0 | 0.0 | 0.19 | 2.88 | 2.88 | 99 | 1012.6 |
| 20260509185308 | 66 | 33 | 0.0 | 0.0 | 0.17 | 2.87 | 2.87 | 99 | 1012.4 |
| 20260509184806 | 66 | 28 | 0.0 | 0.0 | 0.17 | 2.85 | 2.85 | 99 | 1012.6 |
| 20260509184303 | 66 | 49 | 0.0 | 0.0 | 0.19 | 2.84 | 2.84 | 99 | 1012.8 |
| 20260509183800 | 66 | 12 | 0.0 | 0.0 | 0.14 | 2.82 | 2.82 | 99 | 1013.1 |
| 20260509183255 | 66 | 353 | 0.0 | 0.0 | 0.12 | 2.81 | 2.81 | 99 | 1013.2 |
| 20260509182750 | 65 | 354 | 0.0 | 0.0 | 0.17 | 2.80 | 2.80 | 99 | 1013.1 |
| 20260509182248 | 65 | 28 | 0.0 | 0.0 | 0.24 | 2.79 | 2.79 | 99 | 1013.0 |
| 20260509181745 | 65 | 18 | 0.0 | 0.0 | 0.19 | 2.77 | 2.77 | 99 | 1012.5 |
| 20260509181243 | 65 | 24 | 0.0 | 0.0 | 0.12 | 2.75 | 2.75 | 99 | 1012.5 |
| 20260509180740 | 65 | 37 | 0.0 | 0.0 | 0.12 | 2.74 | 2.74 | 99 | 1012.4 |